When you browse on this site, cookies collect data to enhance your experience and personalize the content and advertising you see.
Visit our Privacy Policy to learn more. By continuing to use the site, you agree to this use of cookies and data.
  • In Latvia
  • List of Countries
  • For 7 days
  • Water Temperature
  • Weather Map
  • Weather Widgets
  • user-avatar
    Login

    Hourly Weather Yablonec

    Today, 21 February, Friday

    Time Temperature Precipitation Wind Pressure Humidity
    00:00 +1°C° 0 mm 2 mps 757 mmHg 86%
    01:00 +1°C° 0 mm 2 mps 757 mmHg 86%
    02:00 0°C° 0 mm 3 mps 757 mmHg 87%
    03:00 0°C° 0 mm 3 mps 756 mmHg 87%
    04:00 0°C° 0 mm 3 mps 756 mmHg 86%
    05:00 0°C° 0 mm 3 mps 755 mmHg 86%
    06:00 -1°C° 0 mm 4 mps 755 mmHg 85%
    07:00 -1°C° 0 mm 4 mps 755 mmHg 85%
    08:00 -1°C° 0 mm 4 mps 755 mmHg 84%
    15:00 +2°C° 0 mm 6 mps 753 mmHg 65%
    16:00 +1°C° 0 mm 5 mps 753 mmHg 66%
    17:00 +1°C° 0 mm 5 mps 753 mmHg 67%
    18:00 +1°C° 0 mm 5 mps 753 mmHg 71%
    19:00 +1°C° 0 mm 5 mps 754 mmHg 75%
    20:00 0°C° 0 mm 5 mps 754 mmHg 79%
    21:00 0°C° 0 mm 5 mps 754 mmHg 85%
    22:00 0°C° 0 mm 5 mps 754 mmHg 90%
    23:00 0°C° 0 mm 5 mps 754 mmHg 95%

    Tomorrow, 22 February, Saturday

    Time Temperature Precipitation Wind Pressure Humidity
    00:00 0°C° 0 mm 4 mps 754 mmHg 93%
    01:00 0°C° 0 mm 4 mps 755 mmHg 90%
    02:00 +1°C° 0 mm 3 mps 755 mmHg 87%
    03:00 -1°C° 0 mm 4 mps 755 mmHg 89%
    04:00 -1°C° 0 mm 4 mps 755 mmHg 91%
    05:00 -2°C° 0 mm 4 mps 755 mmHg 92%
    06:00 -1°C° 0 mm 5 mps 755 mmHg 90%
    07:00 -1°C° 0 mm 5 mps 755 mmHg 87%
    08:00 -1°C° 0 mm 6 mps 755 mmHg 85%
    09:00 -1°C° 0 mm 6 mps 754 mmHg 83%
    10:00 -1°C° 0 mm 6 mps 753 mmHg 82%
    11:00 0°C° 0 mm 7 mps 753 mmHg 80%
    12:00 0°C° 0 mm 7 mps 752 mmHg 77%
    13:00 0°C° 0 mm 8 mps 751 mmHg 74%
    14:00 +1°C° 0 mm 8 mps 750 mmHg 71%
    15:00 0°C° 0.5 mm 8 mps 748 mmHg 78%
    16:00 0°C° 0.5 mm 9 mps 747 mmHg 86%
    17:00 -1°C° 0.5 mm 9 mps 745 mmHg 93%
    18:00 -1°C° 0.8 mm 9 mps 744 mmHg 93%
    19:00 -2°C° 0.8 mm 10 mps 742 mmHg 93%
    20:00 -2°C° 0.8 mm 10 mps 741 mmHg 92%
    21:00 0°C° 1.1 mm 9 mps 739 mmHg 92%
    22:00 0°C° 1.1 mm 8 mps 738 mmHg 92%
    23:00 +1°C° 1.1 mm 8 mps 736 mmHg 92%

    Day after tomorrow, 23 February, Sunday

    Time Temperature Precipitation Wind Pressure Humidity
    00:00 0°C° 0.4 mm 7 mps 736 mmHg 87%
    01:00 0°C° 0.4 mm 7 mps 736 mmHg 82%
    02:00 0°C° 0.4 mm 7 mps 736 mmHg 77%
    03:00 -1°C° 0.3 mm 7 mps 736 mmHg 82%
    04:00 -1°C° 0.3 mm 6 mps 736 mmHg 87%
    05:00 -2°C° 0.3 mm 6 mps 737 mmHg 92%
    06:00 -1°C° 0.4 mm 5 mps 737 mmHg 90%
    07:00 0°C° 0.4 mm 5 mps 737 mmHg 87%
    08:00 0°C° 0.4 mm 5 mps 738 mmHg 84%
    09:00 0°C° 0 mm 5 mps 738 mmHg 79%
    10:00 +1°C° 0 mm 6 mps 738 mmHg 74%
    11:00 +1°C° 0 mm 6 mps 738 mmHg 70%
    12:00 +1°C° 0.1 mm 6 mps 739 mmHg 71%
    13:00 +2°C° 0.1 mm 6 mps 739 mmHg 73%
    14:00 +2°C° 0.1 mm 6 mps 740 mmHg 75%
    15:00 +1°C° 0.1 mm 5 mps 739 mmHg 75%
    16:00 +1°C° 0.1 mm 5 mps 739 mmHg 76%
    17:00 +1°C° 0.1 mm 4 mps 738 mmHg 76%
    18:00 0°C° 0.2 mm 5 mps 738 mmHg 83%
    19:00 0°C° 0.2 mm 5 mps 738 mmHg 89%
    20:00 0°C° 0.2 mm 5 mps 738 mmHg 96%
    21:00 0°C° 0.1 mm 5 mps 738 mmHg 94%
    22:00 0°C° 0.1 mm 5 mps 737 mmHg 93%
    23:00 0°C° 0.1 mm 5 mps 737 mmHg 91%

    24 February, Monday

    Time Temperature Precipitation Wind Pressure Humidity
    00:00 0°C° 0.2 mm 5 mps 737 mmHg 92%
    01:00 0°C° 0.2 mm 5 mps 737 mmHg 93%
    02:00 -1°C° 0.2 mm 4 mps 737 mmHg 94%
    03:00 -1°C° 0.1 mm 4 mps 738 mmHg 92%
    04:00 -1°C° 0.1 mm 4 mps 738 mmHg 90%
    05:00 -1°C° 0.1 mm 4 mps 738 mmHg 87%
    06:00 -1°C° 0 mm 4 mps 739 mmHg 84%
    07:00 -1°C° 0 mm 5 mps 740 mmHg 81%
    08:00 -2°C° 0 mm 5 mps 740 mmHg 78%
    09:00 -2°C° 0 mm 6 mps 741 mmHg 76%
    10:00 -1°C° 0 mm 6 mps 742 mmHg 73%
    11:00 -1°C° 0 mm 7 mps 742 mmHg 70%
    12:00 -1°C° 0 mm 7 mps 743 mmHg 74%
    13:00 -1°C° 0 mm 7 mps 744 mmHg 77%
    14:00 -1°C° 0 mm 7 mps 745 mmHg 81%
    15:00 -2°C° 0.2 mm 7 mps 746 mmHg 85%
    16:00 -2°C° 0.2 mm 6 mps 747 mmHg 90%
    17:00 -3°C° 0.2 mm 6 mps 748 mmHg 94%
    18:00 -3°C° 0.2 mm 6 mps 749 mmHg 88%
    19:00 -2°C° 0.2 mm 5 mps 750 mmHg 83%
    20:00 -2°C° 0.2 mm 4 mps 751 mmHg 77%
    21:00 -2°C° 0 mm 4 mps 752 mmHg 77%
    22:00 -3°C° 0 mm 4 mps 752 mmHg 77%
    23:00 -3°C° 0 mm 4 mps 753 mmHg 77%

    25 February, Tuesday

    Time Temperature Precipitation Wind Pressure Humidity
    00:00 -4°C° 0 mm 3 mps 753 mmHg 77%
    01:00 -4°C° 0 mm 3 mps 754 mmHg 76%
    02:00 -3°C° 0 mm 2 mps 754 mmHg 76%
    03:00 -4°C° 0 mm 2 mps 754 mmHg 78%
    04:00 -4°C° 0 mm 2 mps 754 mmHg 79%
    05:00 -4°C° 0 mm 2 mps 754 mmHg 81%
    06:00 -4°C° 0 mm 2 mps 753 mmHg 78%
    07:00 -4°C° 0 mm 3 mps 753 mmHg 75%
    08:00 -4°C° 0 mm 3 mps 752 mmHg 72%
    09:00 -3°C° 0 mm 4 mps 752 mmHg 66%
    10:00 -2°C° 0 mm 5 mps 751 mmHg 60%
    11:00 -1°C° 0 mm 5 mps 750 mmHg 54%
    12:00 -2°C° 0.1 mm 6 mps 748 mmHg 56%
    13:00 -2°C° 0.1 mm 7 mps 747 mmHg 58%
    14:00 -2°C° 0.1 mm 8 mps 745 mmHg 60%
    15:00 -2°C° 0.8 mm 8 mps 745 mmHg 71%
    16:00 -3°C° 0.8 mm 7 mps 744 mmHg 83%
    17:00 -3°C° 0.8 mm 7 mps 743 mmHg 94%
    18:00 -2°C° 0.3 mm 6 mps 743 mmHg 92%
    19:00 0°C° 0.3 mm 5 mps 743 mmHg 90%
    20:00 +1°C° 0.3 mm 4 mps 742 mmHg 89%
    21:00 0°C° 0 mm 4 mps 743 mmHg 87%
    22:00 0°C° 0 mm 4 mps 743 mmHg 86%
    23:00 0°C° 0 mm 5 mps 743 mmHg 85%

    26 February, Wednesday

    Time Temperature Precipitation Wind Pressure Humidity
    00:00 0°C° 0 mm 5 mps 742 mmHg 84%
    01:00 0°C° 0 mm 5 mps 742 mmHg 84%
    02:00 0°C° 0 mm 5 mps 742 mmHg 84%
    03:00 0°C° 0 mm 5 mps 742 mmHg 86%
    04:00 0°C° 0 mm 5 mps 742 mmHg 87%
    05:00 -2°C° 0 mm 6 mps 742 mmHg 89%
    06:00 -1°C° 0 mm 6 mps 742 mmHg 86%
    07:00 -1°C° 0 mm 6 mps 741 mmHg 82%
    08:00 -1°C° 0 mm 6 mps 741 mmHg 79%
    09:00 -1°C° 0 mm 6 mps 741 mmHg 77%
    10:00 -1°C° 0 mm 6 mps 741 mmHg 75%
    11:00 +1°C° 0 mm 6 mps 741 mmHg 74%
    12:00 +1°C° 0 mm 6 mps 741 mmHg 74%
    13:00 +1°C° 0 mm 6 mps 741 mmHg 75%
    14:00 +1°C° 0 mm 6 mps 741 mmHg 76%
    15:00 +1°C° 0 mm 6 mps 742 mmHg 77%
    16:00 +1°C° 0 mm 5 mps 742 mmHg 77%
    17:00 +1°C° 0 mm 5 mps 742 mmHg 78%
    18:00 0°C° 0 mm 5 mps 742 mmHg 80%
    19:00 0°C° 0 mm 5 mps 742 mmHg 81%
    20:00 -1°C° 0 mm 5 mps 742 mmHg 83%
    21:00 -1°C° 0 mm 4 mps 742 mmHg 84%
    22:00 -1°C° 0 mm 4 mps 742 mmHg 86%
    23:00 -1°C° 0 mm 3 mps 742 mmHg 87%
    Show more